Tracking 19199 objects as of 25-Jun-2018
HD Live streaming from Space Station
objects crossing your sky now

FENGYUN 1C DEB

Track FENGYUN 1C DEB now!
10-day predictions


NORAD ID: 31542
Int'l Code: 1999-025BYH
Perigee: 822.3 km
Apogee: 901.0 km
Inclination: 99.0 °
Period: 102.0 minutes
Semi major axis: 7232 km
RCS: 0.0019 m2 (small)
Launch date: May 10, 1999
Source: People's Republic of China (PRC)
Launch site: Taiyaun Space Center, China (TSC)

Note: This is SATELLITE DEBRIS
aabbcc
Your satellite tracking list
Your tracking list is empty




NASA's NSSDC Master Catalog

Two Line Element Set (TLE):
1 31542U 99025BYH 18175.91181717 +.00000418 +00000-0 +25194-3 0  9994
2 31542 098.9597 217.3309 0054436 048.6724 311.9113 14.11413776573731
Source of the keplerian elements: AFSPC